Location: Bakov nad Jizerou
(50.4784°N, 14.9394°E)
Time: 11:51:01
(UTC+00:00)

SL-8 R/B - Visible Passes

Search period start: 23 October 2021 00:00
Search period end: 02 November 2021 00:00
Orbit: 656 x 667 km, 48.4° (Epoch: 22 October)

Date Brightness Start Highest point End Pass type
(mag) Time Alt. Az. Time Alt. Az. Time Alt. Az.
23 Oct 3.9 17:19:24 10° WSW 17:24:08 62° SSE 17:26:39 27° E visible
23 Oct 5.1 19:01:43 10° W 19:04:36 35° WSW 19:04:36 35° WSW visible
24 Oct 3.7 17:50:05 10° W 17:54:52 71° S 17:56:02 49° ESE visible
24 Oct 6.1 19:32:32 10° W 19:33:59 19° W 19:33:59 19° W visible
25 Oct 3.9 16:38:31 10° WSW 16:43:15 63° SSE 16:47:27 13° E visible
25 Oct 3.8 18:20:52 10° W 18:25:25 65° SSW 18:25:25 65° SSW visible
26 Oct 3.8 17:09:13 10° W 17:13:59 71° S 17:16:51 24° E visible
26 Oct 5.0 18:51:40 10° W 18:54:49 36° WSW 18:54:49 36° WSW visible
27 Oct 3.8 17:39:59 10° W 17:44:45 65° S 17:46:16 41° SE visible
27 Oct 6.0 19:22:35 10° W 19:24:14 19° W 19:24:14 19° W visible
28 Oct 3.9 16:28:21 10° W 16:33:07 71° S 16:37:45 11° E visible
28 Oct 4.2 18:10:48 10° W 18:15:25 49° SSW 18:15:43 48° S visible
29 Oct 4.0 16:59:07 10° W 17:03:51 64° S 17:07:15 19° ESE visible
29 Oct 5.2 18:41:44 10° W 18:45:14 30° SW 18:45:14 30° SW visible
30 Oct 4.4 17:29:56 10° W 17:34:32 47° SSW 17:36:49 26° SE visible
30 Oct 6.2 19:13:08 10° W 19:14:48 15° WSW 19:14:48 15° WSW visible
31 Oct 4.1 16:18:15 10° W 16:22:59 63° S 16:27:44 10° ESE visible
31 Oct 5.1 18:00:53 10° W 18:05:03 30° SSW 18:06:28 25° S visible
01 Nov 4.6 16:49:04 10° W 16:53:39 46° SSW 16:58:13 10° SE visible
01 Nov 5.9 18:32:20 10° W 18:35:24 17° SW 18:36:14 16° SSW visible
